User: anonymous   Login
Location: Wildcat Hills Observatory
(41.6350°N, 103.6812°W)
Time: 01:35:29
(UTC-06:00)
Language:

Cosmos 1634 Rocket - Orbit

View from above orbital plane
View from above orbital plane
View from above satellite
View from above satellite

Ground track
Ground track

The orbit data is extracted from the following two-line orbital elements,

1 15598U 85022B   17262.89993323 -.00000017 +00000-0 -32690-4 0  9993
2 15598 082.9382 036.6971 0021726 201.3199 269.9584 13.76559213633251
Epoch (UTC): 19 September 2017 21:35:54
Eccentricity: 0.0021726
inclination: 82.9382°
perigee height: 960 km
apogee height: 992 km
right ascension of ascending node: 36.6971°
argument of perigee: 201.3199°
revolutions per day: 13.76559213
mean anomaly at epoch: 269.9584°
orbit number at epoch: 63325

The dashed part of the orbit path shows where the satellite is in the earth's shadow,  

DLR